Regional Weather Roundup
Issued by NWS

Home | Current Version | Previous Version | Graphics & Text | Print | Product List | Glossary On
Versions: 1 2 3 4 5 6 7 8 9 10 11 12 13 14 15 16 17 18 19 20 21 22 23 24 25 26 27 28 29 30 31 32 33 34 35 36 37 38 39 40 41 42 43 44 45 46 47 48 49 50
000
ASUS44 KMEG 230610
RWRTN
TENNESSEE HOURLY STATE WEATHER ROUNDUP
NATIONAL WEATHER SERVICE MEMPHIS TN
100 AM CDT SUN JUL 23 2017

TNZ002-004-019-021-049-052-054-088>092-230700-
WEST TENNESSEE

CITY           SKY/WX    TMP DP  RH WIND       PRES   REMARKS
MEMPHIS INTL   PTCLDY    81  75  82 S8        29.90F
NWS MEMPHIS      N/A     82 N/A N/A MISG        N/A
JACKSON        CLEAR     78  74  87 SW7       29.91F
SOMERVILLE       N/A     79  75  89 CALM      29.91S
COVINGTON      CLEAR     81  75  83 S5        29.90S
UNION CITY     CLEAR     79  75  89 S6        29.87F
BOLIVAR        PTCLDY    77  73  88 CALM      29.91F
PARIS          CLEAR     79  75  89 SW5       29.89F
HUNTINGDON     CLEAR     81  73  78 SW3       29.90F
LEXINGTON      CLEAR     75  73  94 CALM      29.92F
SELMER         PTCLDY    75  72  88 SW5       29.93S
SAVANNAH       PTCLDY    75  72  88 CALM      29.92F
$$

TNZ008-025-027-028-033-062-065-066-230700-
NORTH MIDDLE TENNESSEE

CITY           SKY/WX    TMP DP  RH WIND       PRES   REMARKS
NASHVILLE      PTCLDY    83  73  72 SW7       29.92F
PORTLAND         N/A     82  75  78 SW8       29.90F
CLARKSVILLE    CLEAR     81  75  82 SW9       29.90S
SMYRNA         CLEAR     82  73  74 SW6       29.93F
COOKEVILLE       N/A     77  75  94 CALM      29.95F
GALLATIN       MOCLDY    81  75  83 CALM      29.93F
CROSSVILLE     CLEAR     76  72  87 SW5       30.02S
$$

TNZ061-075-076-078-094-096-097-230700-
SOUTH MIDDLE TENNESSEE

CITY           SKY/WX    TMP DP  RH WIND       PRES   REMARKS
FAYETTEVILLE   CLEAR     79  75  89 CALM      29.97S
TULLAHOMA      CLEAR     75  72  88 CALM      29.99S
WINCHESTER     CLEAR     75  73  94 CALM      29.98S
MCMINNVILLE    CLEAR     79  79 100 SW3       29.97S
COLUMBIA       CLEAR     77  73  88 SW7       29.92S
SHELBYVILLE    CLEAR     77  73  88 S5        29.95S
$$

TNZ017-018-042-046-047-230700-
NORTHEAST TENNESSEE

CITY           SKY/WX    TMP DP  RH WIND       PRES   REMARKS
TRI CITIES     PTCLDY    77  71  82 CALM      29.96F
ELIZABETHTON   CLOUDY    75  72  88 CALM      29.97S
$$

TNZ012-013-036-069-073-074-230700-
CENTRAL EAST TENNESSEE

CITY           SKY/WX    TMP DP  RH WIND       PRES   REMARKS
KNOXVILLE      CLEAR     80  72  76 SW9       29.94F
OAK RIDGE      CLEAR     81  74  79 W3        29.96S
DOWNTOWN KNOXV   N/A     82  75  78 W6        29.93S
GATLINBURG     CLEAR     81  68  65 SW6       29.94F
MORRISTOWN     MOCLDY    81  72  74 W7        29.95S
JACKSBORO      CLEAR     75  73  94 CALM      29.97F
$$

TNZ083-085-099-230700-
SOUTHEAST TENNESSEE

CITY           SKY/WX    TMP DP  RH WIND       PRES   REMARKS
CHATTANOOGA    CLEAR     81  74  79 S3        29.95S
DAYTON         CLOUDY    79  77  94 S3        29.94S
$$

SKY/WX REPORTED AS FAIR MEANS FEW OR NO CLOUDS BELOW
12 THOUSAND FEET.





USA.gov is the U.S. government's official web portal to all federal, state and local government web resources and services.